FENGYUN 2F

Last updated on Jan. 27, 2020, 4:38 a.m. UTC

1 38049U 12002A   20026.87065311 -.00000364  00000-0  00000+0 0  9993
2 38049   1.7389  83.5101 0002804  17.2114  90.3495  1.00278711 29493
UTC
Height (km)
Latitude
Longitude
Inclination
Orbital Period
UTC large
Height (km)
Speed (km/s)
/
Latitude / Longitude
Inclination (degrees)
Orbital Period (minutes)
Azimuth
Elevation
Range (km)
Doppler Factor
iOS Compass Heading
iOS Angle

Next 30 passes for location: Hong Kong

Rise time Rise Azimuth (degrees) Set time Set Azimuth (degrees) Duration Max altitude (degrees)

No matching passes for this satellites